ARCTURUS

Last updated on Mon Oct 14 2024 00:02:42 GMT+0000 (Coordinated Universal Time)

1 56371U 23060B 24287.06448922 -.00000116 00000+0 00000+0 0 9998 2 56371 1.1866 87.3234 0001927 187.9351 208.0539 1.00270368 5320
UTC large
Height (km)
Speed (km/s)
/
Latitude / Longitude
Inclination (degrees)
Orbital Period (minutes)
Azimuth
Elevation
Range (km)
Doppler Factor

Next 0 passes for location: London (51.5072 / 0.1276)

Sorry there are no passes over London.